Wind_Speed
16 17 17 19 20 21 25 25 25 26 28 29 36 37 36 40 37 38 40 42 46 49 52 55 57 61 62 63 65 69 72 69 66 68 66 67 68 66 65 67 65 52 55 57 59
15 17 18 18 22 22 24 27 28 30 34 37 41 43 46 46 50 43 49 53 54 56 59 61 62 62 65 67 71 71 76 73 72 70 75 76 77 75 72 70 66 64 58 60 61
15 17 17 22 22 22 26 29 32 35 38 40 44 46 47 47 51 50 56 58 61 62 65 68 69 69 69 69 70 76 80 75 76 77 78 81 81 82 80 75 72 73 64 64 64
15 14 19 23 23 26 31 34 36 38 39 42 45 46 48 50 53 58 59 64 64 64 66 68 70 74 76 78 80 83 83 83 82 82 87 88 88 85 83 80 77 75 68 69 70
13 16 20 23 26 30 35 37 40 43 45 47 51 52 53 57 57 61 64 68 70 72 73 74 75 78 82 88 93 97 92 90 91 93 95 95 96 95 88 84 83 81 78 71 72
13 18 21 25 29 33 35 39 43 45 49 52 54 56 56 60 63 65 70 73 73 76 77 79 82 86 92 96 100 103 103 97 84 79 89 99 100 101 98 94 92 88 82 76 72
15 19 24 26 31 35 39 44 47 48 51 53 54 59 60 63 67 73 76 78 80 83 85 89 93 97 98 94 85 76 73 71 71 68 73 90 100 103 104 104 102 96 93 86 76
16 20 26 29 33 38 42 47 49 51 53 57 60 60 64 69 74 78 82 80 85 88 92 95 94 84 71 58 50 51 49 50 44 46 52 74 90 98 103 107 106 107 101 95 86
17 22 26 31 35 41 45 48 51 54 56 60 63 69 71 76 80 81 84 85 88 93 94 86 71 56 41 43 44 42 52 45 38 34 39 47 63 79 94 103 109 110 107 100 93
20 24 29 34 39 42 45 49 52 56 59 65 66 73 76 81 81 82 85 89 93 95 86 69 52 37 40 46 46 39 42 39 37 30 32 31 38 53 68 90 100 107 108 107 102
22 25 30 36 39 42 46 50 56 60 65 69 70 74 78 81 82 84 88 93 95 87 66 55 39 36 43 42 39 39 37 42 32 28 36 32 31 25 39 64 86 97 101 104 104
22 26 30 36 40 44 50 55 59 63 65 68 72 76 80 83 85 86 91 95 96 77 55 41 33 37 39 37 35 33 33 29 29 28 32 33 31 23 24 34 62 82 91 95 101
21 25 31 36 40 45 51 56 61 64 68 68 74 77 82 85 88 88 92 94 89 61 46 32 33 35 35 31 32 36 37 32 33 21 16 29 18 14 14 22 27 58 75 87 92
22 26 32 38 41 45 52 59 63 68 71 72 76 79 82 84 87 91 93 90 71 55 38 29 34 35 34 33 36 36 37 33 26 21 17 19 19 19 17 19 20 28 53 71 79
25 30 34 42 47 49 56 61 65 69 72 74 76 80 82 84 87 91 91 81 53 46 35 29 33 34 33 39 42 40 39 31 22 19 20 21 21 24 23 21 20 22 45 65 80
26 30 36 44 48 52 56 61 66 70 70 71 75 78 81 84 88 90 89 73 49 37 30 32 32 36 39 40 45 41 37 24 21 23 17 18 21 21 20 23 20 20 23 50 75
28 32 37 46 51 54 58 63 67 68 70 72 74 78 80 84 88 91 84 73 52 39 23 31 33 38 39 39 40 41 37 26 25 21 13 9 16 25 30 33 28 23 20 42 72
30 35 39 48 52 54 59 65 67 69 69 71 75 77 80 85 87 90 77 57 44 34 26 31 36 38 38 39 42 45 42 38 33 27 14 11 11 32 32 34 32 25 19 40 71
32 39 43 50 53 56 60 65 67 67 68 71 74 78 80 84 88 87 73 50 40 34 26 30 31 34 40 39 40 44 42 34 34 30 31 32 29 29 30 32 27 24 19 34 74
34 40 45 51 56 59 61 65 66 65 67 72 74 78 80 82 86 85 75 50 32 33 26 29 29 35 37 36 38 43 42 37 36 39 41 31 32 31 29 25 24 27 17 35 80
36 41 47 53 58 60 61 64 65 66 68 72 74 77 80 83 85 81 71 52 30 30 25 29 30 33 37 40 42 43 43 41 36 36 37 40 29 34 34 22 21 20 15 41 76
39 43 49 54 59 61 64 66 66 65 68 72 74 76 79 82 81 79 66 45 30 32 23 27 30 33 37 41 39 40 41 41 41 35 35 32 29 30 28 16 22 8 16 40 80
42 45 50 56 62 63 65 66 65 65 68 72 74 75 78 81 81 78 65 44 30 30 24 26 31 33 37 36 37 40 40 40 37 33 31 33 26 16 14 21 10 6 21 37 77
45 48 50 57 61 61 64 65 65 63 67 70 73 74 76 80 80 73 58 40 30 29 28 23 28 32 35 37 37 39 41 40 38 36 30 29 22 16 10 16 10 12 28 28 54
45 50 54 60 61 62 63 64 62 63 67 70 71 72 75 77 76 71 60 34 28 28 30 18 23 27 30 32 33 33 40 40 36 35 34 31 20 14 14 16 27 16 13 40 52
47 52 56 59 60 61 62 62 62 64 66 67 68 70 74 76 78 75 60 38 25 26 28 19 20 23 26 29 32 35 34 33 34 36 29 23 18 9 10 13 3 9 31 45 41
48 51 56 58 60 61 61 62 60 61 65 66 66 68 72 74 77 73 60 38 24 22 25 19 16 18 25 28 31 35 33 34 33 34 27 24 14 17 14 17 9 22 40 48 30
Wind_Direction
352 355 348 347 345 347 352 4 8 11 9 5 358 356 353 350 343 331 322 313 307 303 300 297 293 290 287 282 279 276 274 274 271 269 265 264 259 254 250 250 248 236 236 238 246
350 352 350 355 2 3 4 9 10 8 5 1 358 354 352 347 345 335 333 326 316 310 303 299 292 288 285 283 280 275 274 275 271 265 261 258 256 254 250 247 247 243 232 235 243
348 349 356 2 3 358 360 2 2 1 357 356 353 350 346 341 339 333 333 327 322 313 308 302 298 294 289 286 282 280 278 272 267 264 260 257 253 253 250 247 245 242 229 230 233
345 358 359 1 357 357 359 1 360 358 355 352 348 345 343 339 335 335 329 327 321 312 305 300 297 295 292 290 289 284 281 277 274 267 263 260 256 252 250 245 247 245 241 228 228
343 357 354 351 349 351 355 355 356 353 349 348 345 343 341 338 335 332 329 325 321 316 309 304 300 297 294 291 290 289 285 278 273 268 264 260 256 254 249 245 245 244 242 232 228
336 343 349 351 347 346 350 351 352 349 347 344 341 341 339 336 335 332 329 324 318 313 310 308 306 302 298 295 291 287 283 281 277 267 258 254 251 250 249 245 243 243 242 238 229
334 335 342 345 343 344 349 350 348 346 343 342 341 341 338 337 337 334 330 324 320 317 316 313 311 308 305 298 295 294 290 285 280 270 254 246 245 243 242 240 240 240 241 239 230
324 332 338 338 339 339 342 346 348 345 342 342 341 340 341 340 337 334 330 324 321 320 319 318 316 310 306 307 304 310 315 310 298 280 263 247 244 239 237 237 235 234 234 235 233
319 327 334 334 336 337 339 344 345 343 343 341 342 342 343 340 337 333 328 325 324 322 323 321 316 317 317 327 328 326 324 320 314 299 286 260 253 244 239 235 234 230 229 230 231
317 321 330 335 335 336 339 341 341 343 343 343 344 343 343 339 335 332 329 328 327 328 326 323 323 317 325 322 322 322 322 320 313 312 292 289 270 253 241 237 237 234 227 226 227
319 320 331 339 337 339 341 341 339 339 343 344 343 346 342 337 334 333 331 331 332 329 329 328 320 316 322 325 324 324 324 332 331 316 302 301 296 282 251 239 235 234 232 224 220
316 324 337 332 335 339 341 342 341 341 344 344 345 344 341 337 334 335 334 334 333 333 330 329 323 325 327 330 329 327 332 333 350 341 314 306 306 299 274 250 237 232 230 224 220
318 329 335 333 333 339 342 342 342 341 344 344 345 343 339 337 337 336 336 336 336 333 333 332 330 328 335 338 337 345 337 319 326 342 337 348 344 330 340 285 245 233 228 224 217
323 333 333 336 338 339 342 342 341 343 345 345 345 343 339 337 337 338 340 339 336 335 334 331 334 336 347 350 344 338 336 334 322 330 337 333 356 333 335 336 283 229 223 222 213
330 340 341 346 345 343 341 341 343 344 345 345 344 342 339 339 338 341 342 341 341 337 333 335 339 342 357 357 353 346 340 339 328 326 319 335 337 355 343 331 337 270 228 213 208
340 339 343 349 348 345 342 343 344 345 347 344 343 341 340 340 340 342 344 342 343 341 330 346 345 348 353 359 354 349 337 338 340 338 331 320 315 326 345 329 321 325 252 216 208
338 341 344 349 351 346 343 344 346 347 346 344 342 342 341 342 343 343 345 344 342 346 335 344 348 357 358 357 354 357 347 345 356 356 337 324 309 322 320 315 309 307 292 215 202
342 344 344 348 351 347 345 347 345 346 346 343 343 342 343 344 344 345 347 345 342 349 346 1 354 358 359 356 359 5 8 0 358 360 11 353 315 306 301 310 310 302 274 219 198
344 345 346 347 351 348 344 346 346 345 344 344 343 343 346 345 346 347 348 345 343 349 350 358 4 359 358 358 5 5 6 2 359 8 6 350 324 309 313 306 300 305 266 215 190
344 344 346 348 351 348 345 346 346 345 344 344 344 345 346 347 347 348 349 351 348 347 347 354 4 3 2 357 8 4 4 10 9 360 355 354 337 331 333 315 302 319 257 194 188
341 342 344 348 349 347 346 347 346 345 345 345 345 346 347 348 348 349 350 350 349 351 344 347 1 9 3 5 5 3 6 14 3 360 347 350 350 339 336 330 331 321 210 185 182
340 343 344 347 348 347 348 348 346 345 345 346 346 347 348 348 350 349 349 345 350 353 346 348 353 14 7 8 5 5 7 6 359 353 351 353 0 339 334 332 320 343 192 174 167
338 342 345 347 347 348 348 347 345 345 345 346 346 348 348 349 349 350 350 344 349 349 348 346 358 8 10 9 9 6 8 4 360 1 359 2 357 349 12 350 29 105 145 170 179
338 342 346 347 348 348 347 346 345 345 346 346 346 348 349 349 349 352 350 344 347 346 355 349 357 5 7 6 8 7 10 5 5 6 6 1 25 11 20 23 66 150 160 172 178
339 344 348 346 346 346 347 346 343 345 346 346 346 348 349 349 350 351 351 348 342 345 353 347 356 0 6 3 10 11 9 2 2 11 1 3 24 42 72 54 106 83 159 164 157
339 344 347 345 344 346 347 345 345 345 346 345 346 347 348 348 349 352 353 348 342 341 348 342 356 356 4 5 10 17 10 1 2 14 20 12 7 64 66 39 138 156 159 140 147
338 343 344 343 343 344 345 345 345 344 344 345 345 347 348 349 350 352 353 348 345 339 343 340 352 1 357 3 8 14 11 7 6 12 12 19 52 45 50 97 59 146 152 161 151
Height
5826 5824 5822 5820 5817 5815 5812 5808 5804 5801 5798 5795 5791 5787 5782 5777 5773 5768 5764 5760 5754 5748 5743 5736 5729 5724 5718 5713 5706 5700 5696 5700 5705 5705 5702 5698 5695 5701 5704 5707 5712 5730 5732 5733 5730
5825 5823 5820 5818 5815 5813 5810 5806 5802 5798 5794 5789 5785 5779 5774 5768 5763 5758 5753 5747 5742 5735 5729 5722 5715 5707 5702 5695 5688 5683 5679 5684 5681 5681 5675 5675 5673 5677 5685 5692 5699 5707 5716 5720 5720
5824 5822 5820 5817 5814 5812 5808 5803 5798 5793 5788 5783 5778 5773 5768 5761 5756 5750 5744 5737 5729 5720 5712 5703 5696 5689 5683 5675 5670 5662 5657 5660 5659 5654 5647 5650 5649 5655 5664 5676 5680 5677 5693 5700 5704
5823 5821 5819 5815 5813 5809 5805 5799 5794 5788 5783 5778 5772 5766 5760 5753 5747 5740 5732 5725 5716 5707 5698 5690 5680 5672 5664 5654 5644 5636 5633 5630 5633 5629 5624 5622 5625 5632 5639 5656 5658 5662 5673 5681 5685
5821 5820 5817 5814 5810 5806 5801 5795 5789 5784 5778 5772 5766 5759 5751 5743 5736 5727 5719 5709 5699 5688 5678 5668 5659 5649 5639 5626 5614 5602 5597 5593 5594 5595 5591 5591 5595 5600 5616 5628 5631 5635 5643 5660 5670
5819 5817 5814 5811 5806 5802 5797 5791 5785 5779 5772 5765 5758 5751 5742 5735 5724 5714 5702 5692 5682 5670 5660 5646 5635 5623 5611 5597 5581 5566 5555 5548 5546 5554 5554 5547 5556 5562 5585 5595 5598 5608 5622 5636 5650
5817 5813 5811 5807 5804 5799 5793 5786 5780 5773 5766 5759 5750 5742 5733 5724 5711 5699 5688 5675 5661 5648 5635 5621 5606 5590 5573 5557 5541 5527 5517 5511 5508 5513 5513 5504 5508 5523 5543 5549 5566 5581 5594 5609 5628
5814 5811 5807 5803 5800 5795 5788 5781 5775 5767 5759 5750 5742 5732 5720 5707 5696 5685 5670 5655 5640 5626 5612 5595 5575 5556 5542 5530 5522 5508 5501 5487 5487 5477 5475 5473 5469 5486 5498 5511 5528 5541 5565 5580 5604
5811 5808 5804 5799 5795 5790 5783 5776 5769 5761 5751 5742 5733 5721 5708 5696 5683 5668 5654 5641 5625 5607 5588 5568 5551 5537 5525 5515 5508 5501 5489 5480 5473 5463 5454 5453 5448 5463 5469 5479 5481 5505 5531 5557 5579
5807 5804 5800 5795 5790 5785 5778 5770 5762 5755 5744 5732 5721 5711 5698 5685 5669 5654 5638 5622 5604 5584 5563 5548 5534 5525 5516 5507 5498 5489 5482 5474 5460 5456 5446 5440 5434 5438 5446 5455 5461 5476 5501 5526 5549
5804 5801 5796 5791 5786 5780 5772 5763 5757 5748 5734 5723 5712 5699 5686 5672 5656 5642 5624 5607 5583 5561 5547 5534 5525 5518 5511 5501 5491 5481 5473 5463 5457 5447 5435 5431 5423 5425 5427 5430 5435 5446 5473 5498 5525
5802 5798 5793 5787 5782 5774 5766 5756 5748 5740 5728 5714 5702 5689 5675 5660 5646 5628 5610 5593 5573 5551 5537 5528 5519 5513 5504 5494 5484 5475 5465 5458 5451 5440 5431 5425 5419 5416 5413 5412 5415 5424 5444 5468 5500
5800 5796 5790 5785 5778 5770 5760 5751 5741 5730 5719 5704 5693 5680 5666 5648 5632 5617 5598 5579 5560 5541 5530 5521 5515 5507 5499 5489 5480 5469 5460 5451 5442 5437 5427 5422 5418 5412 5409 5404 5402 5409 5426 5446 5472
5796 5791 5786 5780 5774 5764 5753 5743 5733 5721 5710 5699 5684 5670 5655 5637 5622 5602 5583 5563 5544 5532 5524 5517 5510 5502 5493 5484 5475 5466 5456 5445 5437 5431 5425 5416 5415 5411 5406 5402 5398 5398 5409 5430 5457
5791 5786 5780 5772 5764 5755 5747 5736 5725 5713 5702 5690 5676 5661 5643 5629 5611 5592 5576 5554 5538 5524 5516 5514 5507 5498 5490 5479 5470 5460 5448 5441 5435 5428 5424 5417 5411 5407 5404 5401 5398 5396 5402 5408 5423
5785 5781 5774 5767 5759 5750 5740 5729 5718 5708 5693 5682 5668 5654 5638 5618 5600 5582 5566 5547 5535 5522 5512 5508 5503 5495 5484 5476 5466 5457 5446 5440 5431 5425 5420 5416 5411 5404 5403 5400 5398 5396 5396 5404 5420
5782 5776 5770 5762 5753 5744 5734 5725 5714 5700 5687 5675 5662 5646 5631 5612 5591 5572 5557 5540 5527 5521 5515 5507 5500 5490 5483 5477 5468 5456 5442 5433 5430 5424 5417 5413 5408 5401 5398 5393 5390 5391 5391 5392 5407
5777 5771 5764 5756 5747 5738 5729 5718 5706 5693 5681 5668 5653 5638 5623 5605 5588 5567 5549 5533 5521 5516 5511 5504 5496 5489 5482 5474 5464 5452 5443 5434 5428 5421 5417 5413 5409 5400 5393 5387 5381 5380 5379 5380 5391
5772 5766 5759 5751 5741 5732 5723 5711 5698 5687 5676 5662 5648 5632 5616 5597 5578 5562 5543 5532 5520 5514 5510 5504 5497 5490 5480 5472 5464 5454 5446 5439 5427 5422 5416 5411 5403 5395 5389 5385 5376 5373 5370 5376 5388
5767 5760 5754 5746 5735 5726 5718 5706 5694 5682 5668 5654 5641 5626 5609 5595 5577 5559 5541 5532 5522 5513 5509 5505 5499 5489 5482 5475 5464 5455 5448 5436 5430 5421 5413 5410 5397 5389 5383 5376 5371 5365 5363 5369 5386
5762 5756 5748 5739 5730 5722 5712 5701 5689 5676 5664 5650 5636 5621 5604 5589 5571 5555 5539 5529 5522 5515 5509 5503 5499 5492 5483 5473 5463 5455 5446 5438 5433 5425 5414 5401 5396 5386 5378 5371 5366 5361 5361 5368 5386
5757 5751 5743 5735 5728 5717 5705 5693 5683 5671 5659 5645 5631 5617 5601 5587 5570 5551 5537 5524 5521 5515 5509 5503 5498 5490 5484 5474 5465 5458 5449 5440 5434 5428 5415 5407 5398 5388 5380 5373 5370 5364 5365 5375 5393
5752 5746 5738 5730 5720 5710 5699 5689 5679 5665 5653 5639 5626 5613 5597 5584 5567 5548 5535 5524 5521 5514 5508 5503 5495 5489 5485 5478 5469 5460 5452 5445 5439 5429 5418 5408 5402 5393 5387 5381 5375 5373 5379 5387 5399
5747 5740 5734 5725 5715 5705 5694 5684 5672 5660 5649 5637 5623 5611 5597 5579 5561 5549 5534 5524 5518 5513 5508 5503 5497 5491 5486 5478 5471 5464 5455 5449 5441 5434 5426 5416 5408 5403 5395 5391 5387 5386 5392 5401 5410
5741 5734 5725 5716 5708 5699 5690 5678 5667 5655 5645 5632 5619 5607 5595 5582 5566 5549 5532 5525 5518 5512 5508 5504 5500 5495 5489 5484 5478 5469 5460 5454 5447 5440 5430 5424 5417 5412 5405 5403 5402 5401 5404 5409 5425
5734 5728 5720 5712 5703 5695 5684 5673 5661 5650 5641 5629 5616 5603 5590 5577 5562 5549 5534 5524 5519 5511 5508 5504 5501 5496 5492 5486 5481 5472 5468 5461 5452 5446 5439 5431 5424 5418 5415 5415 5414 5414 5419 5424 5440
5729 5722 5715 5707 5698 5688 5677 5667 5656 5647 5637 5625 5614 5602 5588 5576 5559 5544 5531 5522 5518 5513 5508 5503 5502 5498 5492 5487 5482 5477 5472 5464 5458 5450 5444 5438 5431 5427 5424 5424 5425 5426 5429 5431 5438